Wind_Speed
53 53 54 54 55 54 54 54 54 54 54 54 54 55 56 56 56 56 56 56 55 55 55 55 55 55 55 55 54 54 53 52 52 52 51 51 50 49
54 54 54 54 54 54 55 54 54 55 55 55 55 56 56 56 56 56 56 57 57 58 58 57 57 57 57 56 56 55 55 55 55 54 53 52 52 51
56 56 55 55 55 56 56 56 56 56 57 57 57 56 56 57 57 57 58 58 58 58 59 59 59 59 59 59 58 57 57 56 56 56 55 55 54 54
56 56 56 57 57 57 57 57 58 59 59 58 58 57 57 57 57 57 58 59 59 60 60 60 60 60 60 60 59 59 59 58 58 58 57 57 56 56
56 56 56 57 58 57 57 58 58 59 60 59 59 58 58 57 57 57 58 59 60 60 60 61 61 60 60 60 60 60 60 60 60 59 59 58 58 58
56 56 57 58 59 59 59 60 60 60 60 60 60 59 59 58 58 57 58 58 59 60 61 61 61 61 60 60 61 61 61 60 60 60 60 59 59 59
56 57 58 59 60 61 61 62 62 62 62 61 60 59 59 59 59 58 58 58 59 60 61 61 61 62 62 61 61 61 61 61 61 61 61 61 61 61
57 58 58 59 60 61 61 62 62 62 61 61 60 60 59 59 59 59 59 59 58 59 61 62 62 62 62 61 61 61 61 61 61 61 61 61 62 62
58 58 59 59 60 60 60 60 61 61 61 61 61 60 60 60 60 60 59 59 58 58 60 62 63 62 62 62 62 62 62 62 62 62 62 62 62 63
59 60 59 59 59 60 60 60 60 61 61 61 62 61 61 61 61 61 60 59 58 59 59 61 62 62 62 62 62 62 62 62 62 62 62 63 63 63
59 60 60 59 59 60 60 60 59 60 60 61 62 62 61 61 61 62 62 61 60 59 60 60 60 61 61 62 62 62 61 62 62 62 62 63 63 63
58 58 58 58 58 59 59 59 59 59 59 60 61 61 61 61 61 61 61 61 61 60 59 59 59 60 60 61 62 62 62 61 61 62 62 62 62 62
56 56 55 56 56 57 57 58 58 58 58 59 60 60 61 61 61 61 61 61 61 60 60 60 59 59 59 59 60 61 61 61 61 61 61 60 60 61
55 54 54 54 54 55 56 56 57 57 57 57 58 59 60 61 62 62 61 62 61 60 59 60 60 59 58 58 59 59 60 60 60 60 60 59 59 59
52 52 52 52 53 54 54 54 55 55 56 56 56 57 59 60 61 61 61 60 61 60 59 59 59 59 59 58 57 58 59 60 60 59 58 58 58 57
50 50 51 51 52 52 53 53 53 54 54 54 54 55 56 58 59 60 59 59 59 60 60 60 59 59 59 58 57 57 57 57 57 56 57 57 56 56
48 49 49 49 50 50 51 52 52 52 52 53 53 53 54 55 56 57 57 57 57 58 59 59 60 60 59 58 56 56 55 55 55 55 55 55 55 54
48 48 48 48 48 49 49 50 51 51 51 52 52 53 53 53 53 54 55 56 57 57 57 58 58 58 58 57 56 55 53 53 53 54 55 54 53 52
46 47 48 48 48 48 49 49 50 51 51 52 52 52 53 53 53 53 54 54 55 56 56 56 56 55 55 55 54 54 53 52 52 53 53 52 51 50
46 46 46 46 47 48 48 49 49 49 50 50 51 51 52 53 53 53 53 52 52 53 53 53 54 54 53 53 52 52 51 51 51 50 50 50 50 49
45 46 46 46 47 47 47 48 48 48 49 48 49 49 50 51 51 51 51 51 50 50 51 51 52 52 52 52 50 49 49 49 49 48 48 47 48 48
45 46 46 46 46 46 47 47 47 47 47 47 47 48 48 49 49 50 50 49 48 48 48 49 50 50 50 49 48 48 48 48 47 47 46 46 45 45
44 45 45 46 46 46 46 46 46 46 46 46 46 46 46 46 46 46 47 46 46 46 47 47 48 48 48 47 46 46 46 46 46 45 45 45 45 45
Wind_Direction
256 256 256 255 255 255 255 256 256 255 255 255 256 255 255 255 255 256 255 255 255 256 257 257 259 260 261 261 261 261 262 263 264 265 265 266 267 268
255 255 256 255 255 255 255 256 257 257 256 256 256 256 256 256 256 255 255 256 256 256 257 258 259 260 260 260 260 261 262 262 263 265 265 266 267 268
255 255 256 255 255 256 256 256 256 257 257 257 256 257 257 257 256 255 255 256 257 257 258 258 259 260 260 260 260 261 262 262 263 264 265 265 266 268
256 255 256 256 256 256 256 255 256 257 257 258 257 257 257 257 256 256 256 256 256 257 258 259 259 260 259 260 259 261 261 262 263 264 264 265 266 267
257 256 256 256 256 256 256 255 256 257 258 258 258 258 257 257 257 257 257 257 256 257 257 258 259 259 259 259 260 261 262 263 263 264 264 265 266 267
257 256 256 256 257 256 256 256 257 257 258 258 258 258 258 257 257 257 257 258 257 257 257 258 259 259 260 260 260 261 263 263 263 264 264 264 265 267
258 257 257 257 258 257 257 257 257 258 258 258 258 259 259 258 257 257 258 258 258 257 257 258 259 260 260 261 261 262 262 263 263 264 264 265 265 267
259 258 258 258 258 258 258 258 258 258 258 258 258 259 259 259 258 258 258 259 259 259 258 258 259 259 260 260 261 262 262 262 264 265 265 265 266 266
259 259 258 259 259 259 259 258 258 258 258 258 258 259 259 259 259 258 259 259 259 260 259 258 258 259 259 260 261 261 262 263 264 264 264 265 266 266
260 260 259 259 259 258 258 258 259 259 258 258 258 258 258 258 258 258 258 258 259 260 260 260 258 259 260 261 261 262 263 263 264 264 265 265 266 266
260 259 259 259 258 258 258 258 259 259 259 258 258 257 257 257 257 257 256 257 258 259 260 261 260 260 260 261 262 263 263 264 265 265 265 265 266 266
261 260 259 258 258 258 258 258 258 258 258 257 256 256 256 256 256 256 256 257 259 260 260 261 261 261 260 260 262 263 264 265 265 265 265 265 265 266
260 259 259 259 259 259 259 258 258 258 257 256 255 255 255 255 255 256 257 257 259 260 260 261 261 261 262 261 261 264 265 265 266 265 265 265 265 266
260 259 259 259 259 259 259 259 258 258 257 257 257 256 256 255 256 256 257 258 259 260 260 260 261 261 262 262 263 263 264 265 264 264 264 264 265 266
259 259 258 259 259 259 258 258 258 258 258 258 258 257 256 256 256 256 257 258 259 259 259 260 260 261 261 262 263 264 264 263 263 263 263 264 265 266
260 260 259 259 259 258 258 258 259 259 259 259 259 259 258 257 257 256 257 257 258 258 259 260 260 260 261 261 263 264 264 263 262 262 263 264 264 265
259 259 259 259 258 258 258 258 259 259 260 260 260 259 259 259 258 256 256 257 258 258 258 260 260 260 260 261 262 262 263 262 261 262 262 263 264 265
259 258 258 258 258 258 258 259 260 260 261 261 260 259 259 258 259 258 257 257 258 258 258 259 259 259 259 260 261 262 262 262 262 262 262 263 263 264
258 258 258 258 259 259 259 260 261 261 262 262 261 260 260 259 259 259 259 259 258 258 258 258 258 258 258 259 260 261 261 261 262 262 262 262 262 262
259 259 260 260 260 260 260 260 261 261 262 262 262 261 260 260 259 259 258 258 258 258 258 257 257 257 258 258 259 259 259 260 260 261 261 261 261 261
260 260 260 260 260 260 261 261 261 261 262 262 262 261 260 260 259 258 258 257 257 257 257 256 256 256 257 257 257 257 257 258 259 260 260 260 260 260
262 261 260 260 260 260 261 262 262 262 261 262 261 261 260 260 260 259 257 256 256 255 255 255 254 254 255 255 254 255 256 257 258 259 259 259 260 259
263 262 261 260 261 261 261 261 261 261 261 261 261 261 260 259 259 258 257 255 255 254 254 254 253 253 253 253 253 254 254 255 256 257 258 259 259 259
Height
5629 5630 5633 5635 5637 5639 5641 5644 5646 5649 5652 5654 5656 5658 5660 5662 5665 5667 5670 5673 5676 5678 5680 5682 5684 5686 5688 5689 5691 5692 5694 5695 5696 5698 5698 5699 5700 5700
5613 5615 5617 5620 5622 5624 5627 5629 5631 5633 5636 5640 5641 5643 5645 5647 5649 5652 5655 5658 5660 5663 5666 5668 5669 5671 5673 5675 5676 5678 5680 5681 5682 5683 5684 5685 5686 5687
5598 5600 5603 5605 5607 5609 5611 5613 5615 5617 5620 5624 5625 5627 5629 5632 5634 5636 5639 5642 5645 5647 5650 5652 5654 5656 5657 5659 5661 5663 5664 5666 5667 5669 5669 5671 5672 5673
5581 5584 5586 5589 5591 5593 5596 5598 5600 5601 5603 5606 5609 5611 5614 5616 5618 5620 5623 5625 5628 5631 5633 5635 5638 5640 5641 5643 5645 5647 5648 5650 5652 5653 5655 5656 5657 5657
5565 5568 5570 5572 5575 5577 5579 5581 5583 5585 5586 5589 5592 5594 5597 5599 5602 5604 5606 5609 5611 5614 5616 5618 5621 5623 5625 5626 5628 5630 5632 5634 5636 5638 5638 5639 5641 5642
5549 5551 5553 5555 5557 5559 5562 5564 5565 5567 5569 5571 5574 5577 5580 5582 5585 5588 5590 5592 5594 5597 5599 5601 5603 5605 5608 5610 5612 5614 5615 5616 5618 5620 5622 5623 5624 5625
5533 5535 5536 5538 5540 5542 5544 5546 5548 5549 5552 5554 5557 5559 5562 5565 5568 5571 5573 5575 5577 5579 5581 5584 5587 5590 5591 5593 5594 5596 5598 5600 5601 5603 5605 5606 5608 5609
5517 5518 5519 5521 5522 5524 5526 5528 5530 5532 5534 5537 5540 5542 5545 5548 5551 5553 5555 5558 5561 5565 5565 5567 5569 5571 5574 5576 5578 5579 5581 5583 5584 5586 5588 5589 5590 5591
5500 5501 5502 5504 5505 5506 5508 5510 5512 5514 5517 5520 5522 5525 5528 5532 5534 5537 5538 5541 5544 5546 5547 5550 5552 5554 5557 5558 5560 5562 5564 5566 5567 5568 5570 5571 5573 5574
5482 5483 5484 5486 5487 5489 5491 5492 5494 5497 5499 5502 5505 5507 5510 5512 5515 5519 5521 5523 5526 5528 5529 5533 5535 5537 5539 5541 5543 5545 5546 5548 5549 5551 5552 5554 5555 5556
5464 5465 5467 5469 5471 5472 5473 5476 5478 5479 5480 5483 5486 5488 5491 5494 5496 5499 5502 5505 5508 5511 5512 5515 5517 5519 5521 5523 5525 5526 5528 5530 5532 5533 5534 5535 5537 5538
5448 5449 5450 5452 5453 5454 5455 5458 5460 5462 5463 5465 5467 5470 5472 5475 5478 5481 5484 5487 5490 5493 5496 5498 5499 5501 5504 5506 5507 5509 5510 5512 5513 5515 5516 5517 5518 5519
5431 5432 5433 5435 5436 5437 5439 5441 5443 5445 5446 5448 5450 5452 5455 5458 5461 5463 5466 5469 5472 5475 5478 5480 5482 5483 5485 5489 5490 5491 5492 5494 5495 5497 5498 5499 5500 5501
5414 5416 5418 5418 5420 5421 5423 5424 5426 5427 5429 5431 5433 5436 5438 5441 5443 5446 5449 5451 5454 5457 5460 5461 5464 5466 5468 5471 5473 5474 5475 5476 5478 5479 5480 5482 5483 5484
5399 5401 5402 5403 5404 5406 5407 5408 5409 5411 5413 5415 5417 5419 5421 5423 5426 5428 5431 5434 5436 5439 5441 5444 5446 5449 5451 5454 5456 5457 5459 5460 5461 5462 5464 5465 5467 5468
5384 5386 5387 5387 5388 5390 5392 5393 5394 5395 5397 5399 5401 5402 5404 5406 5408 5411 5414 5416 5419 5422 5424 5426 5429 5432 5434 5437 5439 5441 5442 5444 5445 5446 5447 5449 5450 5452
5370 5371 5372 5373 5374 5375 5377 5378 5379 5380 5382 5384 5385 5386 5388 5389 5391 5394 5396 5399 5402 5405 5408 5410 5412 5415 5417 5420 5422 5424 5426 5427 5429 5430 5431 5433 5435 5437
5356 5356 5358 5359 5360 5361 5362 5364 5365 5366 5367 5368 5369 5371 5372 5374 5375 5377 5379 5382 5385 5388 5391 5393 5396 5398 5401 5404 5406 5408 5409 5411 5413 5414 5415 5417 5420 5422
5342 5343 5344 5345 5346 5347 5348 5349 5350 5351 5352 5353 5354 5355 5357 5358 5360 5361 5364 5366 5369 5372 5374 5377 5379 5382 5385 5389 5392 5392 5394 5396 5397 5399 5400 5403 5406 5408
5328 5329 5330 5331 5332 5333 5334 5335 5336 5336 5337 5338 5339 5340 5341 5342 5344 5346 5348 5350 5353 5356 5358 5361 5364 5366 5370 5373 5376 5378 5378 5380 5382 5384 5386 5388 5391 5393
5314 5315 5316 5316 5317 5318 5319 5320 5321 5322 5323 5323 5324 5325 5326 5328 5329 5331 5333 5335 5337 5340 5343 5346 5349 5351 5353 5356 5360 5363 5364 5366 5368 5370 5372 5374 5376 5378
5300 5300 5301 5302 5303 5304 5305 5306 5306 5307 5308 5309 5310 5311 5312 5313 5315 5316 5318 5321 5323 5326 5329 5332 5334 5336 5339 5342 5345 5348 5350 5352 5354 5356 5358 5361 5362 5365
5285 5286 5287 5287 5288 5289 5290 5291 5292 5293 5294 5295 5296 5297 5298 5299 5301 5302 5304 5307 5310 5312 5315 5317 5320 5322 5325 5328 5331 5334 5337 5339 5341 5343 5346 5347 5349 5352